Weather History for KCNY - August, 2013

Change the Weather History Date:

Saturday, August 17, 2013

  Actual Average Record
Temperature  
Mean Temperature 79 °F 77 °F  
Max Temperature 93 °F 92 °F 106 °F (1986)
Min Temperature 64 °F 62 °F 46 °F (1960)
Degree Days  
Heating Degree Days 0 0  
Month to date heating degree days 0 0  
Since 1 June heating degree days 0 17  
Since 1 July heating degree days 0 0  
Cooling Degree Days 14 12  
Month to date cooling degree days 222 234  
Year to date cooling degree days 1290 1027  
Since 1 June cooling degree days 1210 963  
Growing Degree Days 30 (Base 50)    
Moisture  
Dew Point 37 °F    
Average Humidity 23    
Maximum Humidity 31    
Minimum Humidity 14    
Precipitation  
Precipitation 0.00 in 0.03 in 0.33 in (1989)
Month to date precipitation 0.70 0.46  
Year to date precipitation 3.39 5.00  
Sea Level Pressure  
Sea Level Pressure 29.91 in    
Wind  
Wind Speed 7 mph (SSW)    
Max Wind Speed 33 mph    
Max Gust Speed 43 mph    
Visibility 10 miles    
Events      
T = Trace of Precipitation, MM = Missing Value Source: NWS Daily Summary

Daily Weather History Graph

Daily Weather History Graph

Search for Another Location

Airport or City:

Trip Planner

Search our weather history database for the weather conditions in past years. The results will help you decide how hot, cold, wet, or windy it might be!

Date:

Astronomy

Aug. 17, 2013 Rise Set
Actual Time 6:34 AM MDT 8:10 PM MDT
Civil Twilight 6:06 AM MDT 8:38 PM MDT
Nautical Twilight 5:32 AM MDT 9:12 PM MDT
Astronomical Twilight 4:56 AM MDT 9:48 PM MDT
Moon 5:27 PM MDT (8/17) 2:42 AM MDT (8/17)
Length of Visible Light 14h 31m
Length of Day
13h 35m
Waxing Gibbous, 85% of the Moon is Illuminated
Aug 17
Waxing Gibbous
Aug 20
Full
Aug 28
Last Quarter
Sep 5
New
Sep 12
First Quarter

Hourly Weather History & Observations

Time (MDT) Temp. Dew Point Humidity Pressure Visibility Wind Dir Wind Speed Gust Speed Precip Events Conditions
12:53 AM 72.0 °F 28.0 °F 20% 29.88 in 10.0 mi Calm Calm - N/A   Clear
1:53 AM 71.1 °F 28.0 °F 20% 29.88 in 10.0 mi Calm Calm - N/A   Clear
3:53 AM 69.1 °F 28.9 °F 22% 29.87 in 10.0 mi Calm Calm - N/A   Clear
4:53 AM 68.0 °F 30.0 °F 24% 29.88 in 10.0 mi Calm Calm - N/A   Clear
5:53 AM 70.0 °F 30.9 °F 24% 29.89 in 10.0 mi Calm Calm - N/A   Clear
6:53 AM 68.0 °F 32.0 °F 26% 29.92 in 10.0 mi Calm Calm - N/A   Clear
7:53 AM 75.0 °F 34.0 °F 22% 29.93 in 10.0 mi ESE 3.5 mph - N/A   Clear
8:53 AM 77.0 °F 34.0 °F 21% 29.94 in 10.0 mi SSE 5.8 mph - N/A   Clear
9:53 AM 82.0 °F 33.1 °F 17% 29.95 in 10.0 mi SE 8.1 mph - N/A   Clear
10:53 AM 84.9 °F 33.1 °F 16% 29.95 in 10.0 mi SE 5.8 mph - N/A   Clear
11:53 AM 93.0 °F 37.0 °F 14% 29.96 in 10.0 mi West 16.1 mph 21.9 mph N/A   Clear
12:53 PM 84.0 °F 46.9 °F 27% 29.99 in 8.0 mi SW 29.9 mph 40.3 mph N/A   Clear
1:53 PM 84.9 °F 46.0 °F 26% 29.98 in 10.0 mi SW 26.5 mph 35.7 mph N/A   Clear
2:53 PM 88.0 °F 43.0 °F 21% 29.95 in 10.0 mi SSW 12.7 mph - N/A   Clear
3:53 PM 89.1 °F 41.0 °F 19% 29.90 in 10.0 mi ESE 9.2 mph - N/A   Clear
4:53 PM 88.0 °F 43.0 °F 21% 29.89 in 10.0 mi SSE 5.8 mph - N/A   Clear
5:53 PM 88.0 °F 41.0 °F 19% 29.88 in 10.0 mi SSW 4.6 mph - N/A   Clear
6:53 PM 88.0 °F 39.9 °F 18% 29.89 in 10.0 mi West 10.4 mph - N/A   Clear
7:53 PM 84.0 °F 39.9 °F 21% 29.87 in 10.0 mi West 5.8 mph - N/A   Clear
8:53 PM 79.0 °F 39.0 °F 24% 29.88 in 10.0 mi Calm Calm - N/A   Clear
9:53 PM 75.9 °F 39.9 °F 27% 29.89 in 10.0 mi WSW 3.5 mph - N/A   Clear
10:53 PM 75.9 °F 42.1 °F 30% 29.90 in 10.0 mi WSW 6.9 mph - N/A   Clear
11:53 PM 78.1 °F 42.1 °F 28% 29.90 in 10.0 mi West 6.9 mph - N/A   Clear